| time (UTC) | temp F | wind direction | speed knots | gust knots | rain 1hr in | rain 24hr in | rain mn in | humidity % | barometer mb |
| 20260503050007 | 69 | 267 | 0.0 | 0.0 | 0.00 | 0.00 | 0.00 | 93 | 1016.9 |
| 20260503045005 | 69 | 267 | 0.0 | 0.0 | 0.00 | 0.00 | 0.00 | 92 | 1016.8 |
| 20260503044005 | 69 | 331 | 0.0 | 0.9 | 0.00 | 0.00 | 0.00 | 92 | 1016.8 |
| 20260503043005 | 69 | 226 | 1.7 | 3.5 | 0.00 | 0.00 | 0.00 | 93 | 1016.8 |
| 20260503042005 | 69 | 311 | 0.0 | 1.7 | 0.00 | 0.00 | 0.00 | 94 | 1017.0 |
| 20260503041005 | 69 | 227 | 0.0 | 0.0 | 0.00 | 0.00 | 0.00 | 94 | 1016.8 |
| 20260503040006 | 70 | 226 | 0.0 | 0.0 | 0.00 | 0.00 | 0.00 | 93 | 1016.8 |
| 20260503035005 | 71 | 226 | 0.0 | 1.7 | 0.00 | 0.00 | 0.00 | 91 | 1017.0 |
| 20260503034005 | 71 | 233 | 0.0 | 0.0 | 0.00 | 0.00 | 0.00 | 92 | 1016.8 |
| 20260503033005 | 71 | 233 | 0.0 | 0.9 | 0.00 | 0.00 | 0.00 | 89 | 1017.0 |
| 20260503031007 | 70 | 206 | 0.0 | 0.9 | 0.00 | 0.00 | 0.00 | 89 | 1017.3 |
| 20260503030006 | 70 | 258 | 0.0 | 0.9 | 0.00 | 0.00 | 0.00 | 89 | 1017.4 |
| 20260503025005 | 70 | 218 | 0.0 | 0.0 | 0.00 | 0.00 | 0.00 | 93 | 1017.5 |
| 20260503024005 | 70 | 137 | 0.0 | 0.0 | 0.00 | 0.00 | 0.00 | 94 | 1017.7 |
| 20260503023005 | 70 | 137 | 0.0 | 0.0 | 0.00 | 0.00 | 0.00 | 94 | 1017.9 |
| 20260503022005 | 70 | 138 | 0.0 | 1.7 | 0.00 | 0.00 | 0.00 | 93 | 1018.0 |
| 20260503021010 | 70 | 209 | 0.0 | 0.0 | 0.00 | 0.00 | 0.00 | 94 | 1018.1 |
| 20260503020006 | 69 | 246 | 0.0 | 2.6 | 0.00 | 0.00 | 0.00 | 94 | 1018.2 |
| 20260503015005 | 70 | 245 | 2.6 | 3.5 | 0.00 | 0.00 | 0.00 | 94 | 1018.3 |
| 20260503014005 | 70 | 298 | 0.0 | 0.0 | 0.00 | 0.00 | 0.00 | 95 | 1018.5 |
| 20260503012005 | 69 | 194 | 0.0 | 0.9 | 0.00 | 0.00 | 0.00 | 95 | 1019.1 |
| 20260503011005 | 68 | 194 | 0.0 | 2.6 | 0.00 | 0.00 | 0.00 | 95 | 1019.1 |
| 20260503010005 | 68 | 161 | 0.0 | 0.0 | 0.00 | 0.00 | 0.00 | 96 | 1019.2 |
| 20260503003006 | 68 | 106 | 0.0 | 0.9 | 0.00 | 0.00 | 0.00 | 98 | 1019.6 |
| 20260503001005 | 67 | 260 | 0.0 | 0.0 | 0.00 | 0.00 | 0.00 | 99 | 1019.7 |
| 20260503000006 | 66 | 278 | 0.0 | 0.0 | 0.00 | 0.00 | 0.00 | 99 | 1019.7 |
| 20260502235006 | 66 | 269 | 0.0 | 0.0 | 0.00 | 0.00 | 0.00 | 99 | 1019.8 |
| 20260502234005 | 66 | 274 | 0.0 | 0.0 | 0.00 | 0.00 | 0.00 | 99 | 1019.8 |
| 20260502233005 | 65 | 231 | 0.0 | 0.9 | 0.00 | 0.00 | 0.00 | 99 | 1019.7 |
| 20260502231006 | 64 | 207 | 0.0 | 0.0 | 0.00 | 0.00 | 0.00 | 99 | 1019.9 |
| 20260502225006 | 64 | 336 | 0.0 | 0.0 | 0.00 | 0.00 | 0.00 | 99 | 1019.9 |
| 20260502223006 | 63 | 336 | 0.0 | 0.0 | 0.00 | 0.00 | 0.00 | 99 | 1019.7 |
| 20260502222006 | 63 | 344 | 0.0 | 0.0 | 0.00 | 0.00 | 0.00 | 99 | 1019.4 |
| 20260502221006 | 63 | 344 | 0.0 | 0.0 | 0.00 | 0.00 | 0.00 | 99 | 1019.5 |
| 20260502220006 | 63 | 344 | 0.0 | 0.0 | 0.00 | 0.00 | 0.00 | 99 | 1019.2 |
| 20260502215005 | 63 | 344 | 0.0 | 0.0 | 0.00 | 0.00 | 0.00 | 99 | 1019.3 |
| 20260502214005 | 63 | 344 | 0.0 | 0.0 | 0.00 | 0.00 | 0.00 | 99 | 1019.1 |
| 20260502213006 | 62 | 344 | 0.0 | 0.0 | 0.00 | 0.00 | 0.00 | 99 | 1018.9 |
| 20260502212006 | 62 | 344 | 0.0 | 0.0 | 0.00 | 0.00 | 0.00 | 99 | 1018.8 |
| 20260502211006 | 61 | 344 | 0.0 | 0.0 | 0.00 | 0.00 | 0.00 | 99 | 1019.1 |
| 20260502210006 | 60 | 344 | 0.0 | 0.0 | 0.00 | 0.00 | 0.00 | 99 | 1018.8 |
| 20260502204005 | 60 | 344 | 0.0 | 0.0 | 0.00 | 0.00 | 0.00 | 99 | 1018.7 |
| 20260502203005 | 59 | 344 | 0.0 | 0.0 | 0.00 | 0.00 | 0.00 | 99 | 1018.5 |
| 20260502202010 | 60 | 344 | 0.0 | 0.0 | 0.00 | 0.00 | 0.00 | 99 | 1018.5 |
| 20260502201005 | 59 | 344 | 0.0 | 0.0 | 0.00 | 0.00 | 0.00 | 99 | 1018.7 |
| 20260502200005 | 59 | 344 | 0.0 | 0.0 | 0.00 | 0.00 | 0.00 | 99 | 1018.5 |
| 20260502195006 | 59 | 344 | 0.0 | 0.0 | 0.00 | 0.00 | 0.00 | 99 | 1018.3 |
| 20260502194010 | 59 | 344 | 0.0 | 0.0 | 0.00 | 0.00 | 0.00 | 99 | 1018.2 |
| 20260502193006 | 60 | 337 | 0.0 | 0.0 | 0.00 | 0.00 | 0.00 | 99 | 1018.2 |
| 20260502192005 | 60 | 337 | 0.0 | 0.0 | 0.00 | 0.00 | 0.00 | 99 | 1018.4 |
| 20260502191005 | 60 | 336 | 0.0 | 0.0 | 0.00 | 0.00 | 0.00 | 99 | 1018.4 |
| 20260502190005 | 60 | 336 | 0.0 | 0.0 | 0.00 | 0.00 | 0.00 | 99 | 1018.2 |
| 20260502184006 | 60 | 336 | 0.0 | 0.0 | 0.00 | 0.00 | 0.00 | 99 | 1018.2 |
| 20260502182005 | 60 | 336 | 0.0 | 0.0 | 0.00 | 0.00 | 0.00 | 99 | 1018.3 |
| 20260502181005 | 61 | 88 | 0.0 | 0.0 | 0.00 | 0.00 | 0.00 | 99 | 1018.3 |
| 20260502163006 | 63 | 271 | 0.0 | 0.0 | 0.00 | 0.00 | 0.00 | 99 | 1018.8 |
| 20260502162006 | 63 | 271 | 0.0 | 0.0 | 0.00 | 0.00 | 0.00 | 99 | 1018.8 |
| 20260502161011 | 63 | 271 | 0.0 | 0.0 | 0.00 | 0.00 | 0.00 | 99 | 1018.8 |
| 20260502152005 | 64 | 271 | 0.0 | 0.0 | 0.00 | 0.00 | 0.00 | 99 | 1019.3 |
| 20260502151006 | 64 | 271 | 0.0 | 0.0 | 0.00 | 0.00 | 0.00 | 99 | 1019.2 |
| 20260502123005 | 65 | 268 | 0.0 | 0.0 | 0.00 | 0.00 | 0.29 | 99 | 1019.6 |
| 20260502122006 | 65 | 268 | 0.0 | 0.0 | 0.00 | 0.00 | 0.29 | 99 | 1019.7 |
| 20260502115005 | 66 | 268 | 0.0 | 0.0 | 0.00 | 0.00 | 0.29 | 99 | 1019.9 |
| 20260502113005 | 66 | 268 | 0.0 | 0.0 | 0.00 | 0.00 | 0.28 | 99 | 1019.7 |
| 20260502112006 | 66 | 268 | 0.0 | 0.0 | 0.00 | 0.00 | 0.28 | 99 | 1019.7 |
| 20260502111006 | 66 | 268 | 0.0 | 0.0 | 0.00 | 0.00 | 0.28 | 99 | 1019.7 |
| 20260502110006 | 66 | 268 | 0.0 | 0.0 | 0.00 | 0.00 | 0.28 | 99 | 1019.7 |
| 20260502105005 | 66 | 268 | 0.0 | 0.0 | 0.00 | 0.00 | 0.28 | 99 | 1019.7 |
| 20260502104005 | 66 | 268 | 0.0 | 0.0 | 0.00 | 0.00 | 0.28 | 99 | 1019.8 |
| 20260502103006 | 66 | 268 | 0.0 | 0.0 | 0.00 | 0.00 | 0.28 | 99 | 1019.7 |
| 20260502102005 | 66 | 268 | 0.0 | 0.0 | 0.00 | 0.00 | 0.28 | 99 | 1019.7 |
| 20260502101005 | 66 | 268 | 0.0 | 0.0 | 0.00 | 0.00 | 0.28 | 99 | 1019.8 |
| 20260502091005 | 66 | 268 | 0.0 | 0.0 | 0.00 | 0.00 | 0.28 | 99 | 1019.1 |
| 20260502061005 | 67 | 321 | 0.0 | 0.0 | 0.00 | 0.00 | 0.28 | 99 | 1018.0 |
| 20260502060007 | 67 | 322 | 0.0 | 0.0 | 0.00 | 0.00 | 0.28 | 98 | 1017.9 |
| 20260502055006 | 67 | 321 | 0.0 | 0.0 | 0.00 | 0.00 | 0.28 | 98 | 1018.0 |
| 20260502054005 | 67 | 321 | 0.0 | 1.7 | 0.00 | 0.00 | 0.28 | 98 | 1018.0 |
| 20260502053005 | 67 | 227 | 0.0 | 1.7 | 0.00 | 0.00 | 0.28 | 98 | 1017.9 |
| 20260502052005 | 68 | 64 | 0.0 | 0.9 | 0.00 | 0.00 | 0.28 | 98 | 1018.0 |
| 20260502051009 | 68 | 284 | 0.0 | 0.0 | 0.00 | 0.00 | 0.28 | 99 | 1017.7 |